M I D A S
Marine Information and Data Acquisition System
Tripno 1499 of the Zeeleeuw from 2008-06-09 06:34:31 to 2008-06-09 14:33:54
Back to CruiseResearch ActivitiesStationsMapUnderway DataData graphs

EquipmentUnitsComments
TimeDGPSUTC
LatitudeDGPSDM.mWGS84
LongitudeDGPSDM.mWGS84
SpeedMeteo Stationm/sRelative wind speed
DirectionMeteo StationdegRelative wind direction
TemperatureMeteo Stationdeg CelciusAir temperature
PressureMeteo StationPaAtmospheric pressure
HumidityMeteo Station%Relative humidity
Missing or incorrect values are displayed as -999
Metereological data collected by the RV Zeeleeuw from 2008-06-09 06:34:32 to 2008-06-09 14:45:23
Time Latitude Longitude Speed Direction Temperature Pressure Humidity
2008-06-09 06:35 51°13.636 2°56.011 -999 -999 -999 -999 -999
2008-06-09 06:36 51°13.657 2°55.949 -999 -999 -999 -999 -999
2008-06-09 06:37 51°13.683 2°55.879 -999 -999 -999 -999 -999
2008-06-09 06:38 51°13.711 2°55.819 -999 -999 -999 -999 -999
2008-06-09 06:39 51°13.723 2°55.779 -999 -999 -999 -999 -999
2008-06-09 06:40 51°13.726 2°55.751 -999 -999 -999 -999 -999
2008-06-09 06:41 51°13.721 2°55.738 -999 -999 -999 -999 -999
2008-06-09 06:42 51°13.704 2°55.727 -999 -999 -999 -999 -999
2008-06-09 06:43 51°13.704 2°55.728 -999 -999 -999 -999 -999
2008-06-09 06:44 51°13.714 2°55.725 -999 -999 -999 -999 -999
2008-06-09 06:45 51°13.723 2°55.718 -999 -999 -999 -999 -999
2008-06-09 06:46 51°13.73 2°55.709 -999 -999 -999 -999 -999
2008-06-09 06:47 51°13.742 2°55.697 -999 -999 -999 -999 -999
2008-06-09 06:48 51°13.798 2°55.661 -999 -999 -999 -999 -999
2008-06-09 06:49 51°13.893 2°55.605 -999 -999 -999 -999 -999
2008-06-09 06:50 51°13.97 2°55.55 -999 -999 -999 -999 -999
2008-06-09 06:51 51°14.062 2°55.469 -999 -999 -999 -999 -999
2008-06-09 06:52 51°14.185 2°55.363 -999 -999 -999 -999 -999
2008-06-09 06:53 51°14.307 2°55.175 -999 -999 -999 -999 -999
2008-06-09 06:54 51°14.426 2°54.932 -999 -999 -999 -999 -999
2008-06-09 06:55 51°14.539 2°54.665 -999 -999 -999 -999 -999
2008-06-09 06:56 51°14.623 2°54.378 -999 -999 -999 -999 -999
2008-06-09 06:57 51°14.713 2°54.094 -999 -999 -999 -999 -999
2008-06-09 06:58 51°14.805 2°53.812 -999 -999 -999 -999 -999
2008-06-09 06:59 51°14.894 2°53.526 -999 -999 -999 -999 -999
2008-06-09 07:00 51°14.986 2°53.239 -999 -999 -999 -999 -999
2008-06-09 07:01 51°15.06 2°52.941 -999 -999 -999 -999 -999
2008-06-09 07:02 51°15.077 2°52.625 -999 -999 -999 -999 -999
2008-06-09 07:03 51°15.056 2°52.308 -999 -999 -999 -999 -999
2008-06-09 07:04 51°15.042 2°51.989 -999 -999 -999 -999 -999
2008-06-09 07:05 51°15.033 2°51.669 -999 -999 -999 -999 -999
2008-06-09 07:06 51°15.025 2°51.348 -999 -999 -999 -999 -999
2008-06-09 07:07 51°15.004 2°51.029 -999 -999 -999 -999 -999
2008-06-09 07:08 51°14.983 2°50.708 -999 -999 -999 -999 -999
2008-06-09 07:09 51°14.967 2°50.386 -999 -999 -999 -999 -999
2008-06-09 07:10 51°14.957 2°50.064 -999 -999 -999 -999 -999
2008-06-09 07:11 51°14.94 2°49.74 -999 -999 -999 -999 -999
2008-06-09 07:12 51°14.915 2°49.419 -999 -999 -999 -999 -999
2008-06-09 07:13 51°14.884 2°49.098 -999 -999 -999 -999 -999
2008-06-09 07:14 51°14.863 2°48.774 -999 -999 -999 -999 -999
2008-06-09 07:15 51°14.84 2°48.451 -999 -999 -999 -999 -999
2008-06-09 07:16 51°14.813 2°48.127 -999 -999 -999 -999 -999
2008-06-09 07:17 51°14.796 2°47.8 -999 -999 -999 -999 -999
2008-06-09 07:18 51°14.769 2°47.475 -999 -999 -999 -999 -999
2008-06-09 07:19 51°14.746 2°47.149 -999 -999 -999 -999 -999
2008-06-09 07:20 51°14.722 2°46.823 -999 -999 -999 -999 -999
2008-06-09 07:21 51°14.699 2°46.497 -999 -999 -999 -999 -999
2008-06-09 07:22 51°14.678 2°46.172 -999 -999 -999 -999 -999
2008-06-09 07:23 51°14.662 2°45.847 -999 -999 -999 -999 -999
2008-06-09 07:24 51°14.652 2°45.519 -999 -999 -999 -999 -999
2008-06-09 07:25 51°14.636 2°45.189 -999 -999 -999 -999 -999
2008-06-09 07:26 51°14.584 2°44.874 -999 -999 -999 -999 -999
2008-06-09 07:27 51°14.472 2°44.598 -999 -999 -999 -999 -999
2008-06-09 07:28 51°14.36 2°44.319 -999 -999 -999 -999 -999
2008-06-09 07:29 51°14.253 2°44.034 -999 -999 -999 -999 -999
2008-06-09 07:30 51°14.136 2°43.759 -999 -999 -999 -999 -999
2008-06-09 07:31 51°14.017 2°43.486 -999 -999 -999 -999 -999
2008-06-09 07:32 51°13.897 2°43.213 -999 -999 -999 -999 -999
2008-06-09 07:33 51°13.771 2°42.949 -999 -999 -999 -999 -999
2008-06-09 07:34 51°13.65 2°42.677 -999 -999 -999 -999 -999
2008-06-09 07:35 51°13.529 2°42.405 -999 -999 -999 -999 -999
2008-06-09 07:36 51°13.399 2°42.143 -999 -999 -999 -999 -999
2008-06-09 07:37 51°13.274 2°41.875 -999 -999 -999 -999 -999
2008-06-09 07:38 51°13.151 2°41.605 -999 -999 -999 -999 -999
2008-06-09 07:39 51°13.028 2°41.335 -999 -999 -999 -999 -999
2008-06-09 07:40 51°12.906 2°41.063 -999 -999 -999 -999 -999
2008-06-09 07:41 51°12.784 2°40.791 -999 -999 -999 -999 -999
2008-06-09 07:42 51°12.665 2°40.516 -999 -999 -999 -999 -999
2008-06-09 07:43 51°12.554 2°40.232 -999 -999 -999 -999 -999
2008-06-09 07:44 51°12.43 2°39.964 -999 -999 -999 -999 -999
2008-06-09 07:45 51°12.297 2°39.713 -999 -999 -999 -999 -999
2008-06-09 07:46 51°12.172 2°39.455 -999 -999 -999 -999 -999
2008-06-09 07:47 51°12.053 2°39.186 -999 -999 -999 -999 -999
2008-06-09 07:48 51°11.927 2°38.925 -999 -999 -999 -999 -999
2008-06-09 07:49 51°11.795 2°38.674 -999 -999 -999 -999 -999
2008-06-09 07:50 51°11.664 2°38.424 -999 -999 -999 -999 -999
2008-06-09 07:51 51°11.535 2°38.172 -999 -999 -999 -999 -999
2008-06-09 07:52 51°11.406 2°37.92 -999 -999 -999 -999 -999
2008-06-09 07:53 51°11.277 2°37.665 -999 -999 -999 -999 -999
2008-06-09 07:54 51°11.149 2°37.406 -999 -999 -999 -999 -999
2008-06-09 07:55 51°11.023 2°37.145 -999 -999 -999 -999 -999
2008-06-09 07:56 51°10.901 2°36.877 -999 -999 -999 -999 -999
2008-06-09 07:57 51°10.772 2°36.619 -999 -999 -999 -999 -999
2008-06-09 07:58 51°10.629 2°36.383 -999 -999 -999 -999 -999
2008-06-09 07:59 51°10.482 2°36.152 -999 -999 -999 -999 -999
2008-06-09 08:00 51°10.326 2°35.934 -999 -999 -999 -999 -999
2008-06-09 08:01 51°10.163 2°35.733 -999 -999 -999 -999 -999
2008-06-09 08:02 51°9.983 2°35.567 -999 -999 -999 -999 -999
2008-06-09 08:03 51°9.804 2°35.397 -999 -999 -999 -999 -999
2008-06-09 08:04 51°9.63 2°35.21 -999 -999 -999 -999 -999
2008-06-09 08:05 51°9.446 2°35.047 -999 -999 -999 -999 -999
2008-06-09 08:06 51°9.263 2°34.877 -999 -999 -999 -999 -999
2008-06-09 08:07 51°9.072 2°34.731 -999 -999 -999 -999 -999
2008-06-09 08:08 51°8.878 2°34.583 -999 -999 -999 -999 -999
2008-06-09 08:09 51°8.695 2°34.44 -999 -999 -999 -999 -999
2008-06-09 08:10 51°8.536 2°34.308 -999 -999 -999 -999 -999
2008-06-09 08:11 51°8.425 2°34.234 -999 -999 -999 -999 -999
2008-06-09 08:12 51°8.359 2°34.187 -999 -999 -999 -999 -999
2008-06-09 08:13 51°8.315 2°34.128 -999 -999 -999 -999 -999
2008-06-09 08:14 51°8.278 2°34.046 -999 -999 -999 -999 -999
2008-06-09 08:15 51°8.251 2°33.963 -999 -999 -999 -999 -999
2008-06-09 08:16 51°8.225 2°33.89 -999 -999 -999 -999 -999
2008-06-09 08:17 51°8.199 2°33.824 -999 -999 -999 -999 -999
2008-06-09 08:18 51°8.175 2°33.76 -999 -999 -999 -999 -999
2008-06-09 08:19 51°8.152 2°33.698 -999 -999 -999 -999 -999
2008-06-09 08:20 51°8.13 2°33.638 -999 -999 -999 -999 -999
2008-06-09 08:21 51°8.107 2°33.579 -999 -999 -999 -999 -999
2008-06-09 08:22 51°8.084 2°33.521 -999 -999 -999 -999 -999
2008-06-09 08:23 51°8.062 2°33.463 -999 -999 -999 -999 -999
2008-06-09 08:24 51°8.039 2°33.408 -999 -999 -999 -999 -999
2008-06-09 08:25 51°8.015 2°33.356 -999 -999 -999 -999 -999
2008-06-09 08:26 51°7.986 2°33.298 -999 -999 -999 -999 -999
2008-06-09 08:27 51°7.957 2°33.235 -999 -999 -999 -999 -999
2008-06-09 08:28 51°7.928 2°33.17 -999 -999 -999 -999 -999
2008-06-09 08:29 51°7.899 2°33.106 -999 -999 -999 -999 -999
2008-06-09 08:30 51°7.871 2°33.041 -999 -999 -999 -999 -999
2008-06-09 08:31 51°7.843 2°32.976 -999 -999 -999 -999 -999
2008-06-09 08:32 51°7.815 2°32.91 -999 -999 -999 -999 -999
2008-06-09 08:33 51°7.789 2°32.842 -999 -999 -999 -999 -999
2008-06-09 08:34 51°7.763 2°32.775 -999 -999 -999 -999 -999
2008-06-09 08:35 51°7.737 2°32.708 -999 -999 -999 -999 -999
2008-06-09 08:36 51°7.711 2°32.639 -999 -999 -999 -999 -999
2008-06-09 08:37 51°7.683 2°32.571 -999 -999 -999 -999 -999
2008-06-09 08:38 51°7.658 2°32.505 -999 -999 -999 -999 -999
2008-06-09 08:39 51°7.63 2°32.438 -999 -999 -999 -999 -999
2008-06-09 08:40 51°7.604 2°32.371 -999 -999 -999 -999 -999
2008-06-09 08:41 51°7.576 2°32.305 -999 -999 -999 -999 -999
2008-06-09 08:42 51°7.55 2°32.238 -999 -999 -999 -999 -999
2008-06-09 08:43 51°7.523 2°32.171 -999 -999 -999 -999 -999
2008-06-09 08:44 51°7.497 2°32.102 -999 -999 -999 -999 -999
2008-06-09 08:45 51°7.472 2°32.035 -999 -999 -999 -999 -999
2008-06-09 08:46 51°7.448 2°31.966 -999 -999 -999 -999 -999
2008-06-09 08:47 51°7.431 2°31.893 -999 -999 -999 -999 -999
2008-06-09 08:48 51°7.418 2°31.83 -999 -999 -999 -999 -999
2008-06-09 08:49 51°7.406 2°31.779 -999 -999 -999 -999 -999
2008-06-09 08:50 51°7.394 2°31.736 -999 -999 -999 -999 -999
2008-06-09 08:51 51°7.382 2°31.698 -999 -999 -999 -999 -999
2008-06-09 08:52 51°7.369 2°31.663 -999 -999 -999 -999 -999
2008-06-09 08:53 51°7.357 2°31.628 -999 -999 -999 -999 -999
2008-06-09 08:54 51°7.371 2°31.55 -999 -999 -999 -999 -999
2008-06-09 08:55 51°7.428 2°31.555 -999 -999 -999 -999 -999
2008-06-09 08:56 51°7.55 2°31.69 -999 -999 -999 -999 -999
2008-06-09 08:57 51°7.698 2°31.859 -999 -999 -999 -999 -999
2008-06-09 08:58 51°7.845 2°32.032 -999 -999 -999 -999 -999
2008-06-09 08:59 51°7.982 2°32.227 -999 -999 -999 -999 -999
2008-06-09 09:00 51°8.116 2°32.427 -999 -999 -999 -999 -999
2008-06-09 09:01 51°8.244 2°32.641 -999 -999 -999 -999 -999
2008-06-09 09:02 51°8.39 2°32.822 -999 -999 -999 -999 -999
2008-06-09 09:03 51°8.544 2°32.984 -999 -999 -999 -999 -999
2008-06-09 09:04 51°8.7 2°33.145 -999 -999 -999 -999 -999
2008-06-09 09:05 51°8.856 2°33.311 -999 -999 -999 -999 -999
2008-06-09 09:06 51°9.007 2°33.485 -999 -999 -999 -999 -999
2008-06-09 09:07 51°9.164 2°33.645 -999 -999 -999 -999 -999
2008-06-09 09:08 51°9.321 2°33.807 -999 -999 -999 -999 -999
2008-06-09 09:09 51°9.478 2°33.97 -999 -999 -999 -999 -999
2008-06-09 09:10 51°9.632 2°34.139 -999 -999 -999 -999 -999
2008-06-09 09:11 51°9.789 2°34.304 -999 -999 -999 -999 -999
2008-06-09 09:12 51°9.947 2°34.469 -999 -999 -999 -999 -999
2008-06-09 09:13 51°10.106 2°34.634 -999 -999 -999 -999 -999
2008-06-09 09:14 51°10.262 2°34.8 -999 -999 -999 -999 -999
2008-06-09 09:15 51°10.417 2°34.965 -999 -999 -999 -999 -999
2008-06-09 09:16 51°10.572 2°35.129 -999 -999 -999 -999 -999
2008-06-09 09:17 51°10.729 2°35.292 -999 -999 -999 -999 -999
2008-06-09 09:18 51°10.885 2°35.456 -999 -999 -999 -999 -999
2008-06-09 09:19 51°11.042 2°35.619 -999 -999 -999 -999 -999
2008-06-09 09:20 51°11.199 2°35.78 -999 -999 -999 -999 -999
2008-06-09 09:21 51°11.357 2°35.94 -999 -999 -999 -999 -999
2008-06-09 09:22 51°11.514 2°36.102 -999 -999 -999 -999 -999
2008-06-09 09:23 51°11.671 2°36.263 -999 -999 -999 -999 -999
2008-06-09 09:24 51°11.829 2°36.421 -999 -999 -999 -999 -999
2008-06-09 09:25 51°11.986 2°36.58 -999 -999 -999 -999 -999
2008-06-09 09:26 51°12.144 2°36.738 -999 -999 -999 -999 -999
2008-06-09 09:27 51°12.31 2°36.876 -999 -999 -999 -999 -999
2008-06-09 09:28 51°12.489 2°36.977 -999 -999 -999 -999 -999
2008-06-09 09:29 51°12.678 2°37.029 -999 -999 -999 -999 -999
2008-06-09 09:30 51°12.869 2°37.065 -999 -999 -999 -999 -999
2008-06-09 09:31 51°13.059 2°37.101 -999 -999 -999 -999 -999
2008-06-09 09:32 51°13.253 2°37.131 -999 -999 -999 -999 -999
2008-06-09 09:33 51°13.443 2°37.022 -999 -999 -999 -999 -999
2008-06-09 09:34 51°13.575 2°36.76 -999 -999 -999 -999 -999
2008-06-09 09:35 51°13.529 2°36.425 -999 -999 -999 -999 -999
2008-06-09 09:36 51°13.406 2°36.126 -999 -999 -999 -999 -999
2008-06-09 09:37 51°13.266 2°35.848 -999 -999 -999 -999 -999
2008-06-09 09:38 51°13.126 2°35.571 -999 -999 -999 -999 -999
2008-06-09 09:39 51°12.986 2°35.3 -999 -999 -999 -999 -999
2008-06-09 09:40 51°12.841 2°35.043 -999 -999 -999 -999 -999
2008-06-09 09:41 51°12.698 2°34.779 -999 -999 -999 -999 -999
2008-06-09 09:42 51°12.556 2°34.514 -999 -999 -999 -999 -999
2008-06-09 09:43 51°12.417 2°34.239 -999 -999 -999 -999 -999
2008-06-09 09:44 51°12.272 2°33.971 -999 -999 -999 -999 -999
2008-06-09 09:45 51°12.113 2°33.726 -999 -999 -999 -999 -999
2008-06-09 09:46 51°11.961 2°33.468 -999 -999 -999 -999 -999
2008-06-09 09:47 51°11.804 2°33.216 -999 -999 -999 -999 -999
2008-06-09 09:48 51°11.652 2°32.962 -999 -999 -999 -999 -999
2008-06-09 09:49 51°11.495 2°32.718 -999 -999 -999 -999 -999
2008-06-09 09:50 51°11.355 2°32.48 -999 -999 -999 -999 -999
2008-06-09 09:51 51°11.261 2°32.335 -999 -999 -999 -999 -999
2008-06-09 09:52 51°11.2 2°32.269 -999 -999 -999 -999 -999
2008-06-09 09:53 51°11.159 2°32.184 -999 -999 -999 -999 -999
2008-06-09 09:54 51°11.133 2°32.091 -999 -999 -999 -999 -999
2008-06-09 09:55 51°11.116 2°31.999 -999 -999 -999 -999 -999
2008-06-09 09:56 51°11.095 2°31.918 -999 -999 -999 -999 -999
2008-06-09 09:57 51°11.068 2°31.848 -999 -999 -999 -999 -999
2008-06-09 09:58 51°11.037 2°31.782 -999 -999 -999 -999 -999
2008-06-09 09:59 51°11.009 2°31.713 -999 -999 -999 -999 -999
2008-06-09 10:00 51°10.981 2°31.643 -999 -999 -999 -999 -999
2008-06-09 10:01 51°10.953 2°31.575 -999 -999 -999 -999 -999
2008-06-09 10:02 51°10.922 2°31.507 -999 -999 -999 -999 -999
2008-06-09 10:03 51°10.89 2°31.44 -999 -999 -999 -999 -999
2008-06-09 10:04 51°10.856 2°31.373 -999 -999 -999 -999 -999
2008-06-09 10:05 51°10.822 2°31.305 -999 -999 -999 -999 -999
2008-06-09 10:06 51°10.788 2°31.236 -999 -999 -999 -999 -999
2008-06-09 10:07 51°10.754 2°31.169 -999 -999 -999 -999 -999
2008-06-09 10:08 51°10.72 2°31.102 -999 -999 -999 -999 -999
2008-06-09 10:09 51°10.686 2°31.037 -999 -999 -999 -999 -999
2008-06-09 10:10 51°10.653 2°30.971 -999 -999 -999 -999 -999
2008-06-09 10:11 51°10.618 2°30.909 -999 -999 -999 -999 -999
2008-06-09 10:12 51°10.583 2°30.848 -999 -999 -999 -999 -999
2008-06-09 10:13 51°10.548 2°30.788 -999 -999 -999 -999 -999
2008-06-09 10:14 51°10.512 2°30.727 -999 -999 -999 -999 -999
2008-06-09 10:15 51°10.476 2°30.665 -999 -999 -999 -999 -999
2008-06-09 10:16 51°10.44 2°30.603 -999 -999 -999 -999 -999
2008-06-09 10:17 51°10.402 2°30.544 -999 -999 -999 -999 -999
2008-06-09 10:18 51°10.365 2°30.483 -999 -999 -999 -999 -999
2008-06-09 10:19 51°10.327 2°30.423 -999 -999 -999 -999 -999
2008-06-09 10:20 51°10.289 2°30.363 -999 -999 -999 -999 -999
2008-06-09 10:21 51°10.251 2°30.304 -999 -999 -999 -999 -999
2008-06-09 10:22 51°10.212 2°30.243 -999 -999 -999 -999 -999
2008-06-09 10:23 51°10.173 2°30.183 -999 -999 -999 -999 -999
2008-06-09 10:24 51°10.134 2°30.123 -999 -999 -999 -999 -999
2008-06-09 10:25 51°10.094 2°30.064 -999 -999 -999 -999 -999
2008-06-09 10:26 51°10.054 2°30.004 -999 -999 -999 -999 -999
2008-06-09 10:27 51°10.013 2°29.943 -999 -999 -999 -999 -999
2008-06-09 10:28 51°9.979 2°29.876 -999 -999 -999 -999 -999
2008-06-09 10:29 51°9.95 2°29.806 -999 -999 -999 -999 -999
2008-06-09 10:30 51°9.927 2°29.734 -999 -999 -999 -999 -999
2008-06-09 10:31 51°9.909 2°29.661 -999 -999 -999 -999 -999
2008-06-09 10:32 51°9.894 2°29.598 -999 -999 -999 -999 -999
2008-06-09 10:33 51°9.878 2°29.544 -999 -999 -999 -999 -999
2008-06-09 10:34 51°9.861 2°29.496 -999 -999 -999 -999 -999
2008-06-09 10:35 51°9.844 2°29.453 -999 -999 -999 -999 -999
2008-06-09 10:36 51°9.827 2°29.412 -999 -999 -999 -999 -999
2008-06-09 10:37 51°9.809 2°29.373 -999 -999 -999 -999 -999
2008-06-09 10:38 51°9.789 2°29.334 -999 -999 -999 -999 -999
2008-06-09 10:39 51°9.769 2°29.297 -999 -999 -999 -999 -999
2008-06-09 10:40 51°9.749 2°29.262 -999 -999 -999 -999 -999
2008-06-09 10:41 51°9.731 2°29.214 -999 -999 -999 -999 -999
2008-06-09 10:42 51°9.755 2°29.165 -999 -999 -999 -999 -999
2008-06-09 10:43 51°9.784 2°29.222 -999 -999 -999 -999 -999
2008-06-09 10:44 51°9.809 2°29.295 -999 -999 -999 -999 -999
2008-06-09 10:45 51°9.832 2°29.363 -999 -999 -999 -999 -999
2008-06-09 10:46 51°9.859 2°29.423 -999 -999 -999 -999 -999
2008-06-09 10:47 51°9.887 2°29.466 -999 -999 -999 -999 -999
2008-06-09 10:48 51°9.917 2°29.51 -999 -999 -999 -999 -999
2008-06-09 10:49 51°9.947 2°29.559 -999 -999 -999 -999 -999
2008-06-09 10:50 51°9.976 2°29.609 -999 -999 -999 -999 -999
2008-06-09 10:51 51°10.007 2°29.659 -999 -999 -999 -999 -999
2008-06-09 10:52 51°10.037 2°29.711 -999 -999 -999 -999 -999
2008-06-09 10:53 51°10.067 2°29.761 -999 -999 -999 -999 -999
2008-06-09 10:54 51°10.097 2°29.812 -999 -999 -999 -999 -999
2008-06-09 10:55 51°10.127 2°29.863 -999 -999 -999 -999 -999
2008-06-09 10:56 51°10.158 2°29.914 -999 -999 -999 -999 -999
2008-06-09 10:57 51°10.189 2°29.964 -999 -999 -999 -999 -999
2008-06-09 10:58 51°10.219 2°30.014 -999 -999 -999 -999 -999
2008-06-09 10:59 51°10.248 2°30.066 -999 -999 -999 -999 -999
2008-06-09 11:00 51°10.278 2°30.116 -999 -999 -999 -999 -999
2008-06-09 11:01 51°10.308 2°30.166 -999 -999 -999 -999 -999
2008-06-09 11:02 51°10.341 2°30.211 -999 -999 -999 -999 -999
2008-06-09 11:03 51°10.378 2°30.244 -999 -999 -999 -999 -999
2008-06-09 11:04 51°10.416 2°30.279 -999 -999 -999 -999 -999
2008-06-09 11:05 51°10.448 2°30.325 -999 -999 -999 -999 -999
2008-06-09 11:06 51°10.477 2°30.376 -999 -999 -999 -999 -999
2008-06-09 11:07 51°10.506 2°30.427 -999 -999 -999 -999 -999
2008-06-09 11:08 51°10.534 2°30.479 -999 -999 -999 -999 -999
2008-06-09 11:09 51°10.563 2°30.529 -999 -999 -999 -999 -999
2008-06-09 11:10 51°10.592 2°30.579 -999 -999 -999 -999 -999
2008-06-09 11:11 51°10.617 2°30.634 -999 -999 -999 -999 -999
2008-06-09 11:12 51°10.627 2°30.704 -999 -999 -999 -999 -999
2008-06-09 11:13 51°10.63 2°30.778 -999 -999 -999 -999 -999
2008-06-09 11:14 51°10.632 2°30.853 -999 -999 -999 -999 -999
2008-06-09 11:15 51°10.631 2°30.926 -999 -999 -999 -999 -999
2008-06-09 11:16 51°10.63 2°30.999 -999 -999 -999 -999 -999
2008-06-09 11:17 51°10.615 2°31.069 -999 -999 -999 -999 -999
2008-06-09 11:18 51°10.586 2°31.109 -999 -999 -999 -999 -999
2008-06-09 11:19 51°10.558 2°31.13 -999 -999 -999 -999 -999
2008-06-09 11:20 51°10.534 2°31.142 -999 -999 -999 -999 -999
2008-06-09 11:21 51°10.515 2°31.146 -999 -999 -999 -999 -999
2008-06-09 11:22 51°10.486 2°31.173 -999 -999 -999 -999 -999
2008-06-09 11:23 51°10.408 2°31.114 -999 -999 -999 -999 -999
2008-06-09 11:24 51°10.44 2°30.987 -999 -999 -999 -999 -999
2008-06-09 11:25 51°10.516 2°31.067 -999 -999 -999 -999 -999
2008-06-09 11:26 51°10.626 2°31.238 -999 -999 -999 -999 -999
2008-06-09 11:27 51°10.744 2°31.437 -999 -999 -999 -999 -999
2008-06-09 11:28 51°10.875 2°31.646 -999 -999 -999 -999 -999
2008-06-09 11:29 51°11.007 2°31.858 -999 -999 -999 -999 -999
2008-06-09 11:30 51°11.139 2°32.074 -999 -999 -999 -999 -999
2008-06-09 11:31 51°11.267 2°32.294 -999 -999 -999 -999 -999
2008-06-09 11:32 51°11.394 2°32.51 -999 -999 -999 -999 -999
2008-06-09 11:33 51°11.526 2°32.72 -999 -999 -999 -999 -999
2008-06-09 11:34 51°11.659 2°32.934 -999 -999 -999 -999 -999
2008-06-09 11:35 51°11.788 2°33.14 -999 -999 -999 -999 -999
2008-06-09 11:36 51°11.92 2°33.351 -999 -999 -999 -999 -999
2008-06-09 11:37 51°12.051 2°33.562 -999 -999 -999 -999 -999
2008-06-09 11:38 51°12.178 2°33.787 -999 -999 -999 -999 -999
2008-06-09 11:39 51°12.306 2°33.993 -999 -999 -999 -999 -999
2008-06-09 11:40 51°12.44 2°34.194 -999 -999 -999 -999 -999
2008-06-09 11:41 51°12.576 2°34.4 -999 -999 -999 -999 -999
2008-06-09 11:42 51°12.707 2°34.6 -999 -999 -999 -999 -999
2008-06-09 11:43 51°12.838 2°34.807 -999 -999 -999 -999 -999
2008-06-09 11:44 51°12.95 2°35.037 -999 -999 -999 -999 -999
2008-06-09 11:45 51°13.059 2°35.278 -999 -999 -999 -999 -999
2008-06-09 11:46 51°13.162 2°35.513 -999 -999 -999 -999 -999
2008-06-09 11:47 51°13.261 2°35.76 -999 -999 -999 -999 -999
2008-06-09 11:48 51°13.357 2°36.006 -999 -999 -999 -999 -999
2008-06-09 11:49 51°13.442 2°36.259 -999 -999 -999 -999 -999
2008-06-09 11:50 51°13.503 2°36.531 -999 -999 -999 -999 -999
2008-06-09 11:51 51°13.497 2°36.818 -999 -999 -999 -999 -999
2008-06-09 11:52 51°13.441 2°37.093 -999 -999 -999 -999 -999
2008-06-09 11:53 51°13.272 2°37.239 -999 -999 -999 -999 -999
2008-06-09 11:54 51°13.063 2°37.273 -999 -999 -999 -999 -999
2008-06-09 11:55 51°12.845 2°37.255 -999 -999 -999 -999 -999
2008-06-09 11:56 51°12.624 2°37.197 -999 -999 -999 -999 -999
2008-06-09 11:57 51°12.403 2°37.148 -999 -999 -999 -999 -999
2008-06-09 11:58 51°12.185 2°37.073 -999 -999 -999 -999 -999
2008-06-09 11:59 51°11.961 2°37.023 -999 -999 -999 -999 -999
2008-06-09 12:00 51°11.743 2°36.971 -999 -999 -999 -999 -999
2008-06-09 12:01 51°11.521 2°36.903 -999 -999 -999 -999 -999
2008-06-09 12:02 51°11.298 2°36.853 -999 -999 -999 -999 -999
2008-06-09 12:03 51°11.071 2°36.799 -999 -999 -999 -999 -999
2008-06-09 12:04 51°10.853 2°36.75 -999 -999 -999 -999 -999
2008-06-09 12:05 51°10.636 2°36.7 -999 -999 -999 -999 -999
2008-06-09 12:06 51°10.418 2°36.675 -999 -999 -999 -999 -999
2008-06-09 12:07 51°10.207 2°36.719 -999 -999 -999 -999 -999
2008-06-09 12:08 51°10.035 2°36.885 -999 -999 -999 -999 -999
2008-06-09 12:09 51°9.983 2°37.15 -999 -999 -999 -999 -999
2008-06-09 12:10 51°10.017 2°37.433 -999 -999 -999 -999 -999
2008-06-09 12:11 51°10.056 2°37.708 -999 -999 -999 -999 -999
2008-06-09 12:12 51°10.082 2°37.999 -999 -999 -999 -999 -999
2008-06-09 12:13 51°10.11 2°38.285 -999 -999 -999 -999 -999
2008-06-09 12:14 51°10.133 2°38.569 -999 -999 -999 -999 -999
2008-06-09 12:15 51°10.172 2°38.857 -999 -999 -999 -999 -999
2008-06-09 12:16 51°10.233 2°39.12 -999 -999 -999 -999 -999
2008-06-09 12:17 51°10.266 2°39.256 -999 -999 -999 -999 -999
2008-06-09 12:18 51°10.284 2°39.315 -999 -999 -999 -999 -999
2008-06-09 12:19 51°10.289 2°39.385 -999 -999 -999 -999 -999
2008-06-09 12:20 51°10.296 2°39.456 -999 -999 -999 -999 -999
2008-06-09 12:21 51°10.308 2°39.524 -999 -999 -999 -999 -999
2008-06-09 12:22 51°10.323 2°39.589 -999 -999 -999 -999 -999
2008-06-09 12:23 51°10.342 2°39.649 -999 -999 -999 -999 -999
2008-06-09 12:24 51°10.361 2°39.713 -999 -999 -999 -999 -999
2008-06-09 12:25 51°10.372 2°39.78 -999 -999 -999 -999 -999
2008-06-09 12:26 51°10.389 2°39.844 -999 -999 -999 -999 -999
2008-06-09 12:27 51°10.409 2°39.905 -999 -999 -999 -999 -999
2008-06-09 12:28 51°10.429 2°39.969 -999 -999 -999 -999 -999
2008-06-09 12:29 51°10.447 2°40.032 -999 -999 -999 -999 -999
2008-06-09 12:30 51°10.464 2°40.098 -999 -999 -999 -999 -999
2008-06-09 12:31 51°10.481 2°40.166 -999 -999 -999 -999 -999
2008-06-09 12:32 51°10.503 2°40.226 -999 -999 -999 -999 -999
2008-06-09 12:33 51°10.528 2°40.285 -999 -999 -999 -999 -999
2008-06-09 12:34 51°10.546 2°40.35 -999 -999 -999 -999 -999
2008-06-09 12:35 51°10.561 2°40.421 -999 -999 -999 -999 -999
2008-06-09 12:36 51°10.58 2°40.486 -999 -999 -999 -999 -999
2008-06-09 12:37 51°10.601 2°40.549 -999 -999 -999 -999 -999
2008-06-09 12:38 51°10.622 2°40.618 -999 -999 -999 -999 -999
2008-06-09 12:39 51°10.643 2°40.685 -999 -999 -999 -999 -999
2008-06-09 12:40 51°10.668 2°40.746 -999 -999 -999 -999 -999
2008-06-09 12:41 51°10.697 2°40.801 -999 -999 -999 -999 -999
2008-06-09 12:42 51°10.73 2°40.851 -999 -999 -999 -999 -999
2008-06-09 12:43 51°10.766 2°40.898 -999 -999 -999 -999 -999
2008-06-09 12:44 51°10.797 2°40.952 -999 -999 -999 -999 -999
2008-06-09 12:45 51°10.827 2°41.007 -999 -999 -999 -999 -999
2008-06-09 12:46 51°10.858 2°41.059 -999 -999 -999 -999 -999
2008-06-09 12:47 51°10.887 2°41.108 -999 -999 -999 -999 -999
2008-06-09 12:48 51°10.918 2°41.157 -999 -999 -999 -999 -999
2008-06-09 12:49 51°10.95 2°41.207 -999 -999 -999 -999 -999
2008-06-09 12:50 51°10.981 2°41.256 -999 -999 -999 -999 -999
2008-06-09 12:51 51°11.012 2°41.308 -999 -999 -999 -999 -999
2008-06-09 12:52 51°11.041 2°41.358 -999 -999 -999 -999 -999
2008-06-09 12:53 51°11.069 2°41.414 -999 -999 -999 -999 -999
2008-06-09 12:54 51°11.086 2°41.479 -999 -999 -999 -999 -999
2008-06-09 12:55 51°11.095 2°41.534 -999 -999 -999 -999 -999
2008-06-09 12:56 51°11.097 2°41.561 -999 -999 -999 -999 -999
2008-06-09 12:57 51°11.094 2°41.573 -999 -999 -999 -999 -999
2008-06-09 12:58 51°11.089 2°41.578 -999 -999 -999 -999 -999
2008-06-09 12:59 51°11.109 2°41.627 -999 -999 -999 -999 -999
2008-06-09 13:00 51°11.206 2°41.757 -999 -999 -999 -999 -999
2008-06-09 13:01 51°11.33 2°41.931 -999 -999 -999 -999 -999
2008-06-09 13:02 51°11.451 2°42.166 -999 -999 -999 -999 -999
2008-06-09 13:03 51°11.571 2°42.399 -999 -999 -999 -999 -999
2008-06-09 13:04 51°11.695 2°42.624 -999 -999 -999 -999 -999
2008-06-09 13:05 51°11.821 2°42.847 -999 -999 -999 -999 -999
2008-06-09 13:06 51°11.943 2°43.066 -999 -999 -999 -999 -999
2008-06-09 13:07 51°12.039 2°43.325 -999 -999 -999 -999 -999
2008-06-09 13:08 51°12.131 2°43.585 -999 -999 -999 -999 -999
2008-06-09 13:09 51°12.213 2°43.851 -999 -999 -999 -999 -999
2008-06-09 13:10 51°12.279 2°44.124 -999 -999 -999 -999 -999
2008-06-09 13:11 51°12.333 2°44.415 -999 -999 -999 -999 -999
2008-06-09 13:12 51°12.389 2°44.701 -999 -999 -999 -999 -999
2008-06-09 13:13 51°12.448 2°44.979 -999 -999 -999 -999 -999
2008-06-09 13:14 51°12.515 2°45.26 -999 -999 -999 -999 -999
2008-06-09 13:15 51°12.597 2°45.524 -999 -999 -999 -999 -999
2008-06-09 13:16 51°12.701 2°45.772 -999 -999 -999 -999 -999
2008-06-09 13:17 51°12.813 2°46.009 -999 -999 -999 -999 -999
2008-06-09 13:18 51°12.932 2°46.237 -999 -999 -999 -999 -999
2008-06-09 13:19 51°13.051 2°46.464 -999 -999 -999 -999 -999
2008-06-09 13:20 51°13.173 2°46.687 -999 -999 -999 -999 -999
2008-06-09 13:21 51°13.294 2°46.911 -999 -999 -999 -999 -999
2008-06-09 13:22 51°13.414 2°47.133 -999 -999 -999 -999 -999
2008-06-09 13:23 51°13.538 2°47.36 -999 -999 -999 -999 -999
2008-06-09 13:24 51°13.625 2°47.531 -999 -999 -999 -999 -999
2008-06-09 13:25 51°13.647 2°47.617 -999 -999 -999 -999 -999
2008-06-09 13:26 51°13.664 2°47.673 -999 -999 -999 -999 -999
2008-06-09 13:27 51°13.694 2°47.721 -999 -999 -999 -999 -999
2008-06-09 13:28 51°13.728 2°47.77 -999 -999 -999 -999 -999
2008-06-09 13:29 51°13.761 2°47.838 -999 -999 -999 -999 -999
2008-06-09 13:30 51°13.793 2°47.912 -999 -999 -999 -999 -999
2008-06-09 13:31 51°13.828 2°47.981 -999 -999 -999 -999 -999
2008-06-09 13:32 51°13.86 2°48.056 -999 -999 -999 -999 -999
2008-06-09 13:33 51°13.89 2°48.137 -999 -999 -999 -999 -999
2008-06-09 13:34 51°13.914 2°48.218 -999 -999 -999 -999 -999
2008-06-09 13:35 51°13.936 2°48.281 -999 -999 -999 -999 -999
2008-06-09 13:36 51°13.957 2°48.34 -999 -999 -999 -999 -999
2008-06-09 13:37 51°13.977 2°48.397 -999 -999 -999 -999 -999
2008-06-09 13:38 51°13.997 2°48.453 -999 -999 -999 -999 -999
2008-06-09 13:39 51°14.016 2°48.507 -999 -999 -999 -999 -999
2008-06-09 13:40 51°14.034 2°48.56 -999 -999 -999 -999 -999
2008-06-09 13:41 51°14.054 2°48.61 -999 -999 -999 -999 -999
2008-06-09 13:42 51°14.079 2°48.669 -999 -999 -999 -999 -999
2008-06-09 13:43 51°14.109 2°48.738 -999 -999 -999 -999 -999
2008-06-09 13:44 51°14.14 2°48.808 -999 -999 -999 -999 -999
2008-06-09 13:45 51°14.174 2°48.876 -999 -999 -999 -999 -999
2008-06-09 13:46 51°14.208 2°48.94 -999 -999 -999 -999 -999
2008-06-09 13:47 51°14.242 2°49.003 -999 -999 -999 -999 -999
2008-06-09 13:48 51°14.272 2°49.071 -999 -999 -999 -999 -999
2008-06-09 13:49 51°14.301 2°49.142 -999 -999 -999 -999 -999
2008-06-09 13:50 51°14.334 2°49.21 -999 -999 -999 -999 -999
2008-06-09 13:51 51°14.368 2°49.274 -999 -999 -999 -999 -999
2008-06-09 13:52 51°14.4 2°49.342 -999 -999 -999 -999 -999
2008-06-09 13:53 51°14.431 2°49.413 -999 -999 -999 -999 -999
2008-06-09 13:54 51°14.459 2°49.49 -999 -999 -999 -999 -999
2008-06-09 13:55 51°14.484 2°49.568 -999 -999 -999 -999 -999
2008-06-09 13:56 51°14.507 2°49.649 -999 -999 -999 -999 -999
2008-06-09 13:57 51°14.526 2°49.732 -999 -999 -999 -999 -999
2008-06-09 13:58 51°14.535 2°49.818 -999 -999 -999 -999 -999
2008-06-09 13:59 51°14.525 2°49.886 -999 -999 -999 -999 -999
2008-06-09 14:00 51°14.498 2°49.937 -999 -999 -999 -999 -999
2008-06-09 14:01 51°14.462 2°49.971 -999 -999 -999 -999 -999
2008-06-09 14:02 51°14.421 2°49.994 -999 -999 -999 -999 -999
2008-06-09 14:03 51°14.361 2°49.962 -999 -999 -999 -999 -999
2008-06-09 14:04 51°14.314 2°49.853 -999 -999 -999 -999 -999
2008-06-09 14:05 51°14.286 2°49.771 -999 -999 -999 -999 -999
2008-06-09 14:06 51°14.265 2°49.708 -999 -999 -999 -999 -999
2008-06-09 14:07 51°14.249 2°49.657 -999 -999 -999 -999 -999
2008-06-09 14:08 51°14.235 2°49.614 -999 -999 -999 -999 -999
2008-06-09 14:09 51°14.223 2°49.578 -999 -999 -999 -999 -999
2008-06-09 14:10 51°14.21 2°49.548 -999 -999 -999 -999 -999
2008-06-09 14:11 51°14.198 2°49.521 -999 -999 -999 -999 -999
2008-06-09 14:12 51°14.187 2°49.497 -999 -999 -999 -999 -999
2008-06-09 14:13 51°14.179 2°49.468 -999 -999 -999 -999 -999
2008-06-09 14:14 51°14.225 2°49.452 -999 -999 -999 -999 -999
2008-06-09 14:15 51°14.275 2°49.616 -999 -999 -999 -999 -999
2008-06-09 14:16 51°14.339 2°49.892 -999 -999 -999 -999 -999
2008-06-09 14:17 51°14.387 2°50.177 -999 -999 -999 -999 -999
2008-06-09 14:18 51°14.433 2°50.473 -999 -999 -999 -999 -999
2008-06-09 14:19 51°14.477 2°50.76 -999 -999 -999 -999 -999
2008-06-09 14:20 51°14.517 2°51.06 -999 -999 -999 -999 -999
2008-06-09 14:21 51°14.534 2°51.358 -999 -999 -999 -999 -999
2008-06-09 14:22 51°14.544 2°51.665 -999 -999 -999 -999 -999
2008-06-09 14:23 51°14.559 2°51.973 -999 -999 -999 -999 -999
2008-06-09 14:24 51°14.576 2°52.27 -999 -999 -999 -999 -999
2008-06-09 14:25 51°14.595 2°52.58 -999 -999 -999 -999 -999
2008-06-09 14:26 51°14.617 2°52.88 -999 -999 -999 -999 -999
2008-06-09 14:27 51°14.637 2°53.193 -999 -999 -999 -999 -999
2008-06-09 14:28 51°14.659 2°53.497 -999 -999 -999 -999 -999
2008-06-09 14:29 51°14.673 2°53.814 -999 -999 -999 -999 -999
2008-06-09 14:30 51°14.626 2°54.112 -999 -999 -999 -999 -999
2008-06-09 14:31 51°14.564 2°54.416 -999 -999 -999 -999 -999
2008-06-09 14:32 51°14.478 2°54.701 -999 -999 -999 -999 -999
2008-06-09 14:33 51°14.386 2°54.981 -999 -999 -999 -999 -999
2008-06-09 14:34 51°14.265 2°55.233 -999 -999 -999 -999 -999
2008-06-09 14:35 51°14.145 2°55.392 -999 -999 -999 -999 -999
2008-06-09 14:36 51°14.054 2°55.459 -999 -999 -999 -999 -999
2008-06-09 14:37 51°13.962 2°55.526 -999 -999 -999 -999 -999
2008-06-09 14:38 51°13.875 2°55.59 -999 -999 -999 -999 -999
2008-06-09 14:39 51°13.805 2°55.645 -999 -999 -999 -999 -999
2008-06-09 14:40 51°13.75 2°55.718 -999 -999 -999 -999 -999
2008-06-09 14:41 51°13.694 2°55.822 -999 -999 -999 -999 -999
2008-06-09 14:42 51°13.651 2°55.929 -999 -999 -999 -999 -999
2008-06-09 14:43 51°13.629 2°56.017 -999 -999 -999 -999 -999
2008-06-09 14:44 51°13.624 2°56.043 -999 -999 -999 -999 -999